CW1490 Weather Reports


Display with metric or nautical units.
time (UTC)temp
F
wind
direction
speed
MPH
gust
MPH
rain 1hr
in
rain 24hr
in
rain mn
in
humidity
%
barometer
mb
20161202215331 44 274 0.0 0.0 0.00 0.00 0.00 60 1007.1
20161202212309 45 283 0.0 13.0 0.00 0.00 0.00 58 1007.0
20161202210809 46 288 2.0 15.0 0.00 0.00 0.00 58 1006.9
20161202205314 46 345 0.0 0.0 0.00 0.00 0.00 60 1006.9
20161202203815 46 266 0.0 0.0 0.00 0.00 0.00 59 1006.7
20161202202406 46 270 0.0 0.0 0.00 0.00 0.00 61 1006.9
20161202200825 46 261 0.0 0.0 0.00 0.00 0.00 61 1006.8
20161202195312 46 281 0.0 0.0 0.00 0.00 0.00 62 1006.8
20161202190805 47 263 0.0 0.0 0.00 0.00 0.00 65 1006.6
20161202185332 47 253 0.0 4.0 0.00 0.01 0.00 65 1006.5
20161202183816 46 255 0.0 0.0 0.00 0.01 0.00 67 1006.6
20161202182300 46 266 1.0 16.0 0.00 0.01 0.00 66 1006.5
20161202180810 46 220 0.0 0.0 0.00 0.01 0.00 67 1006.5
20161202175305 46 288 0.0 1.0 0.00 0.01 0.00 67 1006.5
20161202172309 46 280 0.0 3.0 0.00 0.01 0.00 67 1006.8
20161202170802 46 259 0.0 6.0 0.00 0.01 0.00 67 1006.9
20161202163809 46 249 2.0 17.0 0.00 0.01 0.00 68 1007.0
20161202162252 46 282 0.0 8.0 0.00 0.01 0.00 69 1007.2
20161202160755 46 257 0.0 12.0 0.00 0.01 0.00 70 1007.3
20161202153748 45 236 0.0 15.0 0.00 0.01 0.00 69 1007.4
20161202152251 45 292 0.0 10.0 0.00 0.01 0.00 68 1007.7
20161202150740 45 307 0.0 9.0 0.00 0.01 0.00 69 1007.7
20161202145257 45 254 0.0 9.0 0.00 0.01 0.00 70 1007.7
20161202143737 45 278 0.0 6.0 0.00 0.01 0.00 71 1007.6
20161202140739 44 236 1.0 10.0 0.00 0.01 0.00 73 1007.7
20161202135255 44 322 0.0 1.0 0.00 0.01 0.00 73 1007.6
20161202133731 44 252 0.0 0.0 0.00 0.01 0.00 73 1007.6
20161202132228 42 217 0.0 0.0 0.00 0.01 0.00 78 1007.4
20161202130819 40 201 0.0 0.0 0.00 0.01 0.00 83 1007.5
20161202125218 38 178 0.0 0.0 0.00 0.01 0.00 88 1007.5
20161202123735 38 213 0.0 0.0 0.00 0.01 0.00 87 1007.6
20161202122209 37 195 0.0 0.0 0.00 0.01 0.00 88 1007.7
20161202120724 37 252 0.0 0.0 0.00 0.01 0.00 87 1007.6
20161202113716 36 253 0.0 0.0 0.00 0.01 0.00 88 1007.3
20161202112210 37 229 0.0 0.0 0.00 0.01 0.00 85 1007.5
20161202110701 37 247 0.0 0.0 0.00 0.01 0.00 84 1007.2
20161202105233 38 209 0.0 0.0 0.00 0.04 0.00 81 1006.9
20161202103700 39 303 0.0 0.0 0.00 0.04 0.00 79 1006.9
20161202102209 40 234 0.0 0.0 0.00 0.04 0.00 76 1006.8
20161202100705 41 278 0.0 0.0 0.00 0.04 0.00 74 1006.8
20161202095155 41 295 0.0 0.0 0.00 0.16 0.00 73 1006.5
20161202090720 42 206 0.0 6.0 0.00 0.16 0.00 73 1005.9
20161202085152 41 263 0.0 0.0 0.00 0.28 0.00 75 1005.9
20161202083654 41 249 0.0 0.0 0.00 0.28 0.00 74 1005.8
20161202082147 40 249 0.0 4.0 0.00 0.28 0.00 77 1005.7
20161202080642 41 199 0.0 1.0 0.00 0.28 0.00 75 1005.5
20161202075152 41 205 0.0 1.0 0.00 0.36 0.00 76 1005.7
20161202073649 41 126 0.0 0.0 0.00 0.36 0.00 76 1005.5
20161202072145 40 143 0.0 0.0 0.00 0.36 0.00 77 1005.5
20161202065335 41 76 0.0 0.0 0.00 0.50 0.00 76 1005.1
20161202063634 41 81 0.0 0.0 0.00 0.50 0.00 74 1004.8
20161202062141 41 301 0.0 1.0 0.00 0.50 0.00 75 1004.7
20161202060632 42 218 0.0 10.0 0.00 0.50 0.00 73 1004.5
20161202055212 41 257 0.0 8.0 0.00 0.78 0.00 73 1004.2
20161202053626 42 332 0.0 14.0 0.00 0.78 0.00 72 1004.2
20161202052118 42 282 1.0 15.0 0.00 0.78 0.00 72 1004.0
20161202050611 42 39 0.0 3.0 0.00 0.78 0.00 72 1004.0
20161202045145 42 261 0.0 1.0 0.00 1.00 0.78 70 1003.9
20161202043612 42 276 0.0 14.0 0.00 1.00 0.78 70 1003.8
20161202040606 42 238 1.0 18.0 0.00 1.00 0.78 71 1004.0
20161202035116 42 315 0.0 11.0 0.00 1.07 0.78 71 1004.2
20161202033606 41 291 0.0 9.0 0.00 1.07 0.78 73 1004.4
20161202032113 42 243 0.0 1.0 0.00 1.07 0.78 72 1004.4
20161202030604 41 222 0.0 2.0 0.00 1.07 0.78 74 1004.3
20161202022105 43 323 0.0 6.0 0.00 1.12 0.78 69 1004.3
20161202020600 43 255 0.0 14.0 0.00 1.12 0.78 68 1004.1
20161202015111 43 234 0.0 3.0 0.00 1.19 0.78 68 1004.1
20161202013606 43 205 0.0 0.0 0.00 1.19 0.78 69 1004.1
20161202012059 43 270 0.0 0.0 0.00 1.19 0.78 68 1003.9
20161202005119 44 323 0.0 12.0 0.00 1.24 0.78 68 1003.8
20161202003609 43 172 0.0 9.0 0.00 1.24 0.78 70 1003.6
20161202002056 43 94 0.0 10.0 0.00 1.24 0.78 71 1003.3
20161201235101 43 252 0.0 10.0 0.00 1.26 0.78 72 1002.8
20161201233656 44 197 0.0 2.0 0.00 1.26 0.78 71 1002.6
20161201232100 44 165 0.0 0.0 0.00 1.26 0.78 70 1002.6
20161201230618 45 282 0.0 2.0 0.00 1.26 0.78 71 1002.5
20161201225125 44 224 0.0 0.0 0.00 1.26 0.78 73 1002.5
20161201223559 44 224 0.0 0.0 0.00 1.26 0.78 73 1002.3